time, Switch, Flow(0), Analog(2)
yyyy/mm/dd HH:MM:SS.fff, True=FILTERED|False=TOTAL, L/min, V
2023/07/01 23:00:07.941, True, 0.995, 0.129168
2023/07/01 23:00:08.437, True, 1.012, 0.127718
2023/07/01 23:00:08.941, True, 0.995, 0.128481
2023/07/01 23:00:09.445, True, 1.325, 0.129549
2023/07/01 23:00:09.941, True, 1.011, 0.128710
2023/07/01 23:00:10.445, True, 0.995, 0.127413
2023/07/01 23:00:10.949, True, 0.995, 0.129244
2023/07/01 23:00:11.445, True, 1.011, 0.127718
2023/07/01 23:00:11.949, True, 0.995, 0.129015
2023/07/01 23:00:12.453, True, 1.326, 0.126802
2023/07/01 23:00:12.949, True, 1.012, 0.126955
2023/07/01 23:00:13.453, True, 0.994, 0.128634
2023/07/01 23:00:13.949, True, 1.011, 0.128252
2023/07/01 23:00:14.453, True, 0.995, 0.128328
2023/07/01 23:00:14.957, True, 1.326, 0.128328
2023/07/01 23:00:15.453, True, 1.011, 0.129244
2023/07/01 23:00:15.957, True, 0.995, 0.126345
2023/07/01 23:00:16.461, True, 1.326, 0.126955
2023/07/01 23:00:16.957, True, 1.011, 0.127184
2023/07/01 23:00:17.461, True, 0.995, 0.130236
2023/07/01 23:00:17.965, True, 1.327, 0.130388
2023/07/01 23:00:18.461, True, 1.011, 0.130922
2023/07/01 23:00:18.965, True, 0.995, 0.127565
2023/07/01 23:00:19.469, True, 0.995, 0.128481
2023/07/01 23:00:19.965, True, 1.348, 0.127718
2023/07/01 23:00:20.469, True, 0.995, 0.128862
2023/07/01 23:00:20.965, True, 1.011, 0.128328
2023/07/01 23:00:21.469, True, 0.995, 0.124971
2023/07/01 23:00:21.973, True, 0.995, 0.129473
2023/07/01 23:00:22.469, True, 1.011, 0.126268
2023/07/01 23:00:22.973, True, 0.995, 0.128786
2023/07/01 23:00:23.477, True, 1.326, 0.128099
2023/07/01 23:00:23.973, True, 1.011, 0.128252
2023/07/01 23:00:24.477, True, 0.995, 0.128328
2023/07/01 23:00:24.981, True, 1.327, 0.131456
2023/07/01 23:00:25.477, True, 1.011, 0.130159
2023/07/01 23:00:25.981, True, 1.327, 0.127031
2023/07/01 23:00:26.485, True, 0.995, 0.127413
2023/07/01 23:00:26.981, True, 1.011, 0.129702
2023/07/01 23:00:27.484, True, 0.995, 0.129320
2023/07/01 23:00:27.989, True, 0.995, 0.128405
2023/07/01 23:00:28.485, True, 1.011, 0.128328
2023/07/01 23:00:28.989, True, 0.995, 0.127031
2023/07/01 23:00:29.493, True, 0.994, 0.127642
2023/07/01 23:00:29.988, True, 1.011, 0.129778
2023/07/01 23:00:30.492, True, 1.326, 0.127260
2023/07/01 23:00:30.996, True, 0.995, 0.129473
2023/07/01 23:00:31.493, True, 1.012, 0.128481
2023/07/01 23:00:31.997, True, 0.994, 0.123751
2023/07/01 23:00:32.501, True, 1.326, 0.129397
2023/07/01 23:00:33.005, True, 0.995, 0.126879
2023/07/01 23:00:33.501, True, 1.013, 0.128786
2023/07/01 23:00:34.005, True, 0.993, 0.126574
2023/07/01 23:00:34.509, True, 0.995, 0.125887
2023/07/01 23:00:35.005, True, 1.011, 0.127337
2023/07/01 23:00:35.509, True, 1.326, 0.128939
2023/07/01 23:00:36.013, True, 0.996, 0.129778
2023/07/01 23:00:36.508, True, 1.010, 0.127031
2023/07/01 23:00:37.013, True, 1.326, 0.127642
2023/07/01 23:00:37.517, True, 0.995, 0.128634
2023/07/01 23:00:38.013, True, 1.011, 0.129473
2023/07/01 23:00:38.517, True, 0.994, 0.129473
2023/07/01 23:00:39.021, True, 1.327, 0.127642
2023/07/01 23:00:39.517, True, 1.011, 0.126574
2023/07/01 23:00:40.021, True, 0.996, 0.128710
2023/07/01 23:00:40.525, True, 1.326, 0.128023
2023/07/01 23:00:41.021, True, 1.010, 0.130236
2023/07/01 23:00:41.525, True, 0.995, 0.131304
2023/07/01 23:00:42.029, True, 0.995, 0.129473
2023/07/01 23:00:42.525, True, 1.349, 0.125505
2023/07/01 23:00:43.029, True, 0.994, 0.129244
2023/07/01 23:00:43.533, True, 0.995, 0.130236
2023/07/01 23:00:44.029, True, 1.348, 0.128252
2023/07/01 23:00:44.533, True, 0.995, 0.127031
2023/07/01 23:00:45.037, True, 1.326, 0.125811
2023/07/01 23:00:45.532, True, 1.011, 0.127565
2023/07/01 23:00:46.037, True, 0.995, 0.127642
2023/07/01 23:00:46.541, True, 0.996, 0.129015
2023/07/01 23:00:47.045, True, 1.324, 0.128786
2023/07/01 23:00:47.541, True, 1.011, 0.130007
2023/07/01 23:00:48.045, True, 0.995, 0.127794
2023/07/01 23:00:48.548, True, 1.326, 0.128939
2023/07/01 23:00:49.045, True, 1.011, 0.128634
2023/07/01 23:00:49.549, True, 0.995, 0.129015
2023/07/01 23:00:50.053, True, 1.326, 0.128786
2023/07/01 23:00:50.549, True, 1.011, 0.127794
2023/07/01 23:00:51.053, True, 0.995, 0.129397
2023/07/01 23:00:51.549, True, 1.011, 0.129015
2023/07/01 23:00:52.053, True, 0.996, 0.129549
2023/07/01 23:00:52.557, True, 0.993, 0.130388
2023/07/01 23:00:53.061, True, 1.327, 0.126955
2023/07/01 23:00:53.556, True, 1.011, 0.129625
2023/07/01 23:00:54.061, True, 0.995, 0.128176
2023/07/01 23:00:54.565, True, 0.995, 0.126726
2023/07/01 23:00:55.061, True, 1.349, 0.128939
2023/07/01 23:00:55.565, True, 0.994, 0.129778
2023/07/01 23:00:56.069, True, 0.995, 0.129320
2023/07/01 23:00:56.565, True, 1.011, 0.129168
2023/07/01 23:00:57.069, True, 1.326, 0.127565
2023/07/01 23:00:57.565, True, 1.011, 0.130846
2023/07/01 23:00:58.069, True, 0.995, 0.129854
2023/07/01 23:00:58.573, True, 0.995, 0.130388
2023/07/01 23:00:59.069, True, 1.348, 0.127413
2023/07/01 23:00:59.573, True, 0.995, 0.130312
2023/07/01 23:01:00.077, True, 0.994, 0.129702
2023/07/01 23:01:00.573, True, 1.011, 0.130617
2023/07/01 23:01:01.077, True, 1.326, 0.131914
2023/07/01 23:01:01.581, True, 0.995, 0.131380
2023/07/01 23:01:02.077, True, 1.010, 0.129778
2023/07/01 23:01:02.581, True, 0.995, 0.131609
2023/07/01 23:01:03.085, True, 0.995, 0.131380
2023/07/01 23:01:03.589, True, 1.326, 0.133516
2023/07/01 23:01:04.085, True, 1.013, 0.131609
2023/07/01 23:01:04.589, True, 0.993, 0.129015
2023/07/01 23:01:05.093, True, 0.995, 0.131456
2023/07/01 23:01:05.589, True, 1.011, 0.132982
2023/07/01 23:01:06.093, True, 1.326, 0.132601
2023/07/01 23:01:06.597, True, 0.995, 0.132372
2023/07/01 23:01:07.093, True, 1.011, 0.132753
2023/07/01 23:01:07.597, True, 0.995, 0.132830
2023/07/01 23:01:08.101, True, 0.995, 0.132067
2023/07/01 23:01:08.597, True, 1.011, 0.133135
2023/07/01 23:01:09.101, True, 1.326, 0.130541
2023/07/01 23:01:09.605, True, 0.995, 0.130312
2023/07/01 23:01:10.101, True, 1.011, 0.130007
2023/07/01 23:01:10.605, True, 0.994, 0.131304
2023/07/01 23:01:11.109, True, 0.995, 0.131609
2023/07/01 23:01:11.605, True, 1.010, 0.132982
2023/07/01 23:01:12.109, True, 0.995, 0.133745
2023/07/01 23:01:12.613, True, 1.326, 0.132296
2023/07/01 23:01:13.109, True, 1.012, 0.131380
2023/07/01 23:01:13.613, True, 0.994, 0.131151
2023/07/01 23:01:14.117, True, 0.995, 0.131228
2023/07/01 23:01:14.613, True, 1.348, 0.133364
2023/07/01 23:01:15.117, True, 0.995, 0.131914
2023/07/01 23:01:15.621, True, 0.995, 0.133516
2023/07/01 23:01:16.117, True, 1.013, 0.135042
2023/07/01 23:01:16.621, True, 0.993, 0.134432
2023/07/01 23:01:17.117, True, 1.349, 0.132830
2023/07/01 23:01:17.621, True, 0.994, 0.134432
2023/07/01 23:01:18.125, True, 0.995, 0.134890
2023/07/01 23:01:18.621, True, 1.011, 0.134890
2023/07/01 23:01:19.125, True, 0.995, 0.135271
2023/07/01 23:01:19.629, True, 1.326, 0.133974
2023/07/01 23:01:20.125, True, 1.011, 0.133593
2023/07/01 23:01:20.629, True, 0.995, 0.133364
2023/07/01 23:01:21.133, True, 0.995, 0.134508
2023/07/01 23:01:21.629, True, 1.011, 0.135119
2023/07/01 23:01:22.133, True, 0.995, 0.135195
2023/07/01 23:01:22.637, True, 0.995, 0.136339
2023/07/01 23:01:23.133, True, 1.348, 0.133440
2023/07/01 23:01:23.637, True, 0.995, 0.136110
2023/07/01 23:01:24.141, True, 0.995, 0.133593
2023/07/01 23:01:24.637, True, 1.011, 0.133059
2023/07/01 23:01:25.141, True, 0.995, 0.133593
2023/07/01 23:01:25.645, True, 1.327, 0.133059
2023/07/01 23:01:26.141, True, 1.010, 0.134813
2023/07/01 23:01:26.644, True, 0.995, 0.134356
2023/07/01 23:01:27.149, True, 1.326, 0.135348
2023/07/01 23:01:27.645, True, 1.011, 0.134356
2023/07/01 23:01:28.149, True, 0.995, 0.135882
2023/07/01 23:01:28.653, True, 0.995, 0.135348
2023/07/01 23:01:29.149, True, 1.348, 0.136416
2023/07/01 23:01:29.653, True, 0.995, 0.133669
2023/07/01 23:01:30.157, True, 0.994, 0.136034
2023/07/01 23:01:30.653, True, 1.011, 0.134890
2023/07/01 23:01:31.157, True, 1.326, 0.136034
2023/07/01 23:01:31.661, True, 0.995, 0.134661
2023/07/01 23:01:32.157, True, 1.011, 0.133288
2023/07/01 23:01:32.661, True, 0.995, 0.135119
2023/07/01 23:01:33.165, True, 0.996, 0.137026
2023/07/01 23:01:33.661, True, 1.010, 0.136873
2023/07/01 23:01:34.165, True, 0.995, 0.134661
2023/07/01 23:01:34.669, True, 1.326, 0.137026
2023/07/01 23:01:35.165, True, 1.012, 0.135348
2023/07/01 23:01:35.669, True, 0.993, 0.132525
2023/07/01 23:01:36.173, True, 0.995, 0.135500
2023/07/01 23:01:36.669, True, 1.011, 0.137713
2023/07/01 23:01:37.173, True, 0.995, 0.133822
2023/07/01 23:01:37.677, True, 0.995, 0.135958
2023/07/01 23:01:38.173, True, 1.010, 0.136187
2023/07/01 23:01:38.677, True, 0.995, 0.135729
2023/07/01 23:01:39.181, True, 0.995, 0.136034
2023/07/01 23:01:39.676, True, 1.011, 0.137255
2023/07/01 23:01:40.181, True, 1.326, 0.136492
2023/07/01 23:01:40.685, True, 0.663, 0.136187
2023/07/01 23:01:41.181, True, 1.011, 0.135500
2023/07/01 23:01:41.685, True, 0.995, 0.133745
2023/07/01 23:01:42.189, True, 1.326, 0.136110
2023/07/01 23:01:42.685, True, 0.674, 0.136339
2023/07/01 23:01:43.189, True, 0.995, 0.137560
2023/07/01 23:01:43.685, True, 1.011, 0.133745
2023/07/01 23:01:44.189, True, 0.995, 0.135958
2023/07/01 23:01:44.693, True, 1.326, 0.136873
2023/07/01 23:01:45.189, True, 1.011, 0.137179
2023/07/01 23:01:45.693, True, 0.997, 0.134203
2023/07/01 23:01:46.197, True, 0.993, 0.136873
2023/07/01 23:01:46.701, True, 1.326, 0.135653
2023/07/01 23:01:47.197, True, 1.011, 0.135195
2023/07/01 23:01:47.701, True, 0.995, 0.133974
2023/07/01 23:01:48.205, True, 0.995, 0.136645
2023/07/01 23:01:48.701, True, 1.011, 0.136797
2023/07/01 23:01:49.205, True, 0.995, 0.134737
2023/07/01 23:01:49.709, True, 1.328, 0.134890
2023/07/01 23:01:50.205, True, 1.009, 0.136034
2023/07/01 23:01:50.709, True, 0.995, 0.135348
2023/07/01 23:01:51.213, True, 0.995, 0.134356
2023/07/01 23:01:51.709, True, 1.011, 0.136568
2023/07/01 23:01:52.213, True, 0.995, 0.136492
2023/07/01 23:01:52.709, True, 1.011, 0.136797
2023/07/01 23:01:53.213, True, 0.995, 0.135348
2023/07/01 23:01:53.717, True, 1.326, 0.134661
2023/07/01 23:01:54.213, True, 1.011, 0.135195
2023/07/01 23:01:54.717, True, 0.995, 0.136263
2023/07/01 23:01:55.221, True, 1.326, 0.136721
2023/07/01 23:01:55.717, True, 1.011, 0.136110
2023/07/01 23:01:56.221, True, 0.995, 0.137407
2023/07/01 23:01:56.725, True, 1.327, 0.135576
2023/07/01 23:01:57.221, True, 1.011, 0.134737
2023/07/01 23:01:57.725, True, 0.995, 0.134966
2023/07/01 23:01:58.229, True, 0.995, 0.133516
2023/07/01 23:01:58.725, True, 1.011, 0.135119
2023/07/01 23:01:59.229, True, 0.995, 0.135348
2023/07/01 23:01:59.733, True, 0.995, 0.134813
2023/07/01 23:02:00.229, True, 1.011, 0.135576
2023/07/01 23:02:00.733, True, 1.326, 0.136034
2023/07/01 23:02:01.237, True, 0.995, 0.136187
2023/07/01 23:02:01.733, True, 1.011, 0.135119
2023/07/01 23:02:02.237, True, 0.995, 0.137636
2023/07/01 23:02:02.741, True, 0.996, 0.135729
2023/07/01 23:02:03.245, True, 1.325, 0.134203
2023/07/01 23:02:03.741, True, 1.011, 0.136339
2023/07/01 23:02:04.245, True, 0.996, 0.136797
2023/07/01 23:02:04.749, True, 0.994, 0.137789
2023/07/01 23:02:05.245, True, 1.011, 0.135348
2023/07/01 23:02:05.749, True, 0.996, 0.134890
2023/07/01 23:02:06.253, True, 1.326, 0.136416
2023/07/01 23:02:06.749, True, 1.010, 0.137026
2023/07/01 23:02:07.253, True, 0.996, 0.134279
2023/07/01 23:02:07.757, True, 0.995, 0.136873
2023/07/01 23:02:08.253, True, 1.010, 0.134890
2023/07/01 23:02:08.757, True, 0.994, 0.137026
2023/07/01 23:02:09.261, True, 1.327, 0.135195
2023/07/01 23:02:09.757, True, 1.011, 0.135271
2023/07/01 23:02:10.261, True, 0.995, 0.136187
2023/07/01 23:02:10.765, True, 0.993, 0.138018
2023/07/01 23:02:11.261, True, 1.350, 0.137102
2023/07/01 23:02:11.765, True, 0.993, 0.136797
2023/07/01 23:02:12.269, True, 0.995, 0.135958
2023/07/01 23:02:12.773, True, 1.326, 0.136873
2023/07/01 23:02:13.269, True, 1.013, 0.137179
2023/07/01 23:02:13.773, True, 0.994, 0.134966
2023/07/01 23:02:14.277, True, 0.995, 0.136873
2023/07/01 23:02:14.773, True, 1.347, 0.135805
2023/07/01 23:02:15.277, True, 0.995, 0.136187
2023/07/01 23:02:15.773, True, 1.010, 0.136873
2023/07/01 23:02:16.277, True, 0.995, 0.135424
2023/07/01 23:02:16.781, True, 1.327, 0.136645
2023/07/01 23:02:17.277, True, 1.011, 0.134356
2023/07/01 23:02:17.781, True, 0.996, 0.136492
2023/07/01 23:02:18.285, True, 0.993, 0.137789
2023/07/01 23:02:18.781, True, 1.348, 0.136339
2023/07/01 23:02:19.285, True, 0.995, 0.137102
2023/07/01 23:02:19.781, True, 1.011, 0.135653
2023/07/01 23:02:20.285, True, 0.995, 0.140002
2023/07/01 23:02:20.789, True, 0.995, 0.135195
2023/07/01 23:02:21.285, True, 1.348, 0.136568
2023/07/01 23:02:21.789, True, 0.995, 0.136950
2023/07/01 23:02:22.293, True, 0.995, 0.137484
2023/07/01 23:02:22.789, True, 1.011, 0.135042
2023/07/01 23:02:23.293, True, 1.326, 0.137026
2023/07/01 23:02:23.797, True, 0.995, 0.136110
2023/07/01 23:02:24.293, True, 1.012, 0.134966
2023/07/01 23:02:24.797, True, 1.327, 0.135882
2023/07/01 23:02:25.301, True, 0.993, 0.137484
2023/07/01 23:02:25.797, True, 1.011, 0.135729
2023/07/01 23:02:26.301, True, 1.326, 0.134432
2023/07/01 23:02:26.805, True, 0.995, 0.135119
2023/07/01 23:02:27.301, True, 1.011, 0.135348
2023/07/01 23:02:27.805, True, 1.326, 0.135500
2023/07/01 23:02:28.309, True, 0.995, 0.133364
2023/07/01 23:02:28.805, True, 1.012, 0.138399
2023/07/01 23:02:29.309, True, 0.993, 0.134813
2023/07/01 23:02:29.813, True, 0.995, 0.136416
2023/07/01 23:02:30.309, True, 1.011, 0.134508
2023/07/01 23:02:30.813, True, 0.995, 0.137713
2023/07/01 23:02:31.317, True, 1.326, 0.136187
2023/07/01 23:02:31.813, True, 1.011, 0.136721
2023/07/01 23:02:32.317, True, 0.995, 0.135805
2023/07/01 23:02:32.821, True, 1.327, 0.135042
2023/07/01 23:02:33.316, True, 1.010, 0.134813
2023/07/01 23:02:33.821, True, 0.995, 0.136492
2023/07/01 23:02:34.325, True, 1.326, 0.137102
2023/07/01 23:02:34.821, True, 1.011, 0.136339
2023/07/01 23:02:35.325, True, 0.995, 0.136797
2023/07/01 23:02:35.829, True, 1.326, 0.135424
2023/07/01 23:02:36.325, True, 1.011, 0.137331
2023/07/01 23:02:36.829, True, 0.995, 0.136492
2023/07/01 23:02:37.325, True, 1.348, 0.134432
2023/07/01 23:02:37.829, True, 0.995, 0.134432
2023/07/01 23:02:38.333, True, 0.994, 0.137407
2023/07/01 23:02:38.837, True, 0.995, 0.135576
2023/07/01 23:02:39.333, True, 1.011, 0.135348
2023/07/01 23:02:39.837, True, 1.326, 0.134737
2023/07/01 23:02:40.341, True, 0.995, 0.137407
2023/07/01 23:02:40.837, True, 1.010, 0.134279
2023/07/01 23:02:41.341, True, 0.995, 0.135882
2023/07/01 23:02:41.837, True, 1.348, 0.136950
2023/07/01 23:02:42.341, True, 0.996, 0.135119
2023/07/01 23:02:42.845, True, 0.993, 0.136339
2023/07/01 23:02:43.341, True, 1.011, 0.135576
2023/07/01 23:02:43.845, True, 0.995, 0.136263
2023/07/01 23:02:44.349, True, 0.995, 0.136263
2023/07/01 23:02:44.845, True, 1.011, 0.134813
2023/07/01 23:02:45.349, True, 1.326, 0.133822
2023/07/01 23:02:45.853, True, 0.995, 0.136110
2023/07/01 23:02:46.349, True, 1.010, 0.136873
2023/07/01 23:02:46.853, True, 0.995, 0.137865
2023/07/01 23:02:47.357, True, 0.995, 0.135119
2023/07/01 23:02:47.853, True, 1.011, 0.134661
2023/07/01 23:02:48.357, True, 1.326, 0.136568
2023/07/01 23:02:48.861, True, 0.995, 0.136034
2023/07/01 23:02:49.357, True, 1.011, 0.135348
2023/07/01 23:02:49.860, True, 0.995, 0.135424
2023/07/01 23:02:50.365, True, 1.326, 0.137560
2023/07/01 23:02:50.861, True, 1.011, 0.134661
2023/07/01 23:02:51.365, True, 0.995, 0.133211
2023/07/01 23:02:51.869, True, 0.995, 0.135958
2023/07/01 23:02:52.365, True, 1.011, 0.135729
2023/07/01 23:02:52.869, True, 0.996, 0.132906
2023/07/01 23:02:53.372, True, 0.993, 0.136034
2023/07/01 23:02:53.869, True, 1.011, 0.136873
2023/07/01 23:02:54.373, True, 1.326, 0.135729
2023/07/01 23:02:54.877, True, 0.995, 0.137102
2023/07/01 23:02:55.373, True, 1.011, 0.135805
2023/07/01 23:02:55.877, True, 1.326, 0.136263
2023/07/01 23:02:56.381, True, 0.663, 0.136797
2023/07/01 23:02:56.877, True, 1.011, 0.136492
2023/07/01 23:02:57.381, True, 1.326, 0.134432
2023/07/01 23:02:57.885, True, 0.995, 0.136492
2023/07/01 23:02:58.381, True, 1.010, 0.134737
2023/07/01 23:02:58.885, True, 1.327, 0.137713
2023/07/01 23:02:59.389, True, 0.995, 0.135882
2023/07/01 23:02:59.885, True, 1.011, 0.134813
2023/07/01 23:03:00.389, True, 0.995, 0.135958
2023/07/01 23:03:00.893, True, 1.326, 0.135119
2023/07/01 23:03:01.397, True, 0.995, 0.137255
2023/07/01 23:03:01.893, True, 1.011, 0.135882
2023/07/01 23:03:02.397, True, 0.995, 0.135882
2023/07/01 23:03:02.901, True, 1.327, 0.136416
2023/07/01 23:03:03.397, True, 1.010, 0.136721
2023/07/01 23:03:03.901, True, 0.995, 0.137102
2023/07/01 23:03:04.397, True, 1.011, 0.136492
2023/07/01 23:03:04.901, True, 0.995, 0.131380
2023/07/01 23:03:05.405, True, 0.995, 0.135500
2023/07/01 23:03:05.901, True, 1.011, 0.135271
2023/07/01 23:03:06.405, True, 0.996, 0.136950
2023/07/01 23:03:06.909, True, 0.994, 0.134737
2023/07/01 23:03:07.405, True, 1.010, 0.136034
2023/07/01 23:03:07.909, True, 0.995, 0.135653
2023/07/01 23:03:08.413, True, 0.995, 0.134356
2023/07/01 23:03:08.909, True, 1.011, 0.134051
2023/07/01 23:03:09.413, True, 0.994, 0.135195
2023/07/01 23:03:09.917, True, 1.327, 0.132830
2023/07/01 23:03:10.421, True, 0.994, 0.134508
2023/07/01 23:03:10.917, True, 1.013, 0.135729
2023/07/01 23:03:11.421, True, 0.993, 0.134432
2023/07/01 23:03:11.925, True, 0.995, 0.138476
2023/07/01 23:03:12.421, True, 1.011, 0.137026
2023/07/01 23:03:12.925, True, 1.326, 0.135424
2023/07/01 23:03:13.421, True, 1.011, 0.136568
2023/07/01 23:03:13.925, True, 0.995, 0.134585
2023/07/01 23:03:14.429, True, 0.995, 0.135729
2023/07/01 23:03:14.925, True, 1.348, 0.135653
2023/07/01 23:03:15.429, True, 0.995, 0.133669
2023/07/01 23:03:15.933, True, 0.995, 0.136797
2023/07/01 23:03:16.429, True, 1.011, 0.135576
2023/07/01 23:03:16.933, True, 0.995, 0.136110
2023/07/01 23:03:17.437, True, 0.995, 0.136263
2023/07/01 23:03:17.933, True, 1.011, 0.135119
2023/07/01 23:03:18.437, True, 0.995, 0.135653
2023/07/01 23:03:18.941, True, 0.995, 0.135653
2023/07/01 23:03:19.438, True, 1.011, 0.132906
2023/07/01 23:03:19.941, True, 0.995, 0.135729
2023/07/01 23:03:20.445, True, 0.995, 0.134279
2023/07/01 23:03:20.941, True, 1.348, 0.134127
2023/07/01 23:03:21.445, True, 0.995, 0.135882
2023/07/01 23:03:21.941, True, 1.011, 0.133974
2023/07/01 23:03:22.445, True, 1.327, 0.136339
2023/07/01 23:03:22.949, True, 0.994, 0.133440
2023/07/01 23:03:23.445, True, 1.011, 0.133898
2023/07/01 23:03:23.949, True, 1.327, 0.135500
2023/07/01 23:03:24.453, True, 0.994, 0.135042
2023/07/01 23:03:24.949, True, 1.011, 0.134432
2023/07/01 23:03:25.453, True, 0.995, 0.136416
2023/07/01 23:03:25.957, True, 0.994, 0.135271
2023/07/01 23:03:26.461, True, 0.995, 0.134127
2023/07/01 23:03:26.957, True, 1.349, 0.136034
2023/07/01 23:03:27.461, True, 0.994, 0.135348
2023/07/01 23:03:27.965, True, 0.996, 0.135119
2023/07/01 23:03:28.461, True, 1.011, 0.135500
2023/07/01 23:03:28.965, True, 0.994, 0.132982
2023/07/01 23:03:29.469, True, 1.328, 0.133822
2023/07/01 23:03:29.965, True, 1.011, 0.135348
2023/07/01 23:03:30.469, True, 0.994, 0.134890
2023/07/01 23:03:30.973, True, 0.996, 0.134432
2023/07/01 23:03:31.469, True, 1.347, 0.136263
2023/07/01 23:03:31.973, True, 0.995, 0.133135
2023/07/01 23:03:32.477, True, 0.995, 0.134661
2023/07/01 23:03:32.973, True, 1.011, 0.134203
2023/07/01 23:03:33.477, True, 0.994, 0.135576
2023/07/01 23:03:33.981, True, 1.327, 0.136645
2023/07/01 23:03:34.477, True, 1.011, 0.134051
2023/07/01 23:03:34.981, True, 0.995, 0.135882
2023/07/01 23:03:35.485, True, 0.997, 0.133059
2023/07/01 23:03:35.980, True, 1.009, 0.135042
2023/07/01 23:03:36.484, True, 0.995, 0.137942
2023/07/01 23:03:36.981, True, 1.011, 0.137331
2023/07/01 23:03:37.485, True, 0.995, 0.134432
2023/07/01 23:03:37.989, True, 1.326, 0.135195
2023/07/01 23:03:38.485, True, 1.011, 0.134737
2023/07/01 23:03:38.989, True, 0.995, 0.136721
2023/07/01 23:03:39.493, True, 0.994, 0.141070
2023/07/01 23:03:39.997, True, 0.995, 0.134203
2023/07/01 23:03:40.493, True, 1.011, 0.135653
2023/07/01 23:03:40.997, True, 0.994, 0.131456
2023/07/01 23:03:41.501, True, 0.996, 0.135500
2023/07/01 23:03:41.997, True, 1.010, 0.133974
2023/07/01 23:03:42.501, True, 0.995, 0.133211
2023/07/01 23:03:43.005, True, 1.326, 0.135576
2023/07/01 23:03:43.501, True, 1.011, 0.134737
2023/07/01 23:03:44.005, True, 0.995, 0.134966
2023/07/01 23:03:44.501, True, 1.011, 0.133822
2023/07/01 23:03:45.005, True, 1.327, 0.134508
2023/07/01 23:03:45.509, True, 0.994, 0.135348
2023/07/01 23:03:46.005, True, 1.012, 0.134661
2023/07/01 23:03:46.509, True, 0.995, 0.132830
2023/07/01 23:03:47.013, True, 0.993, 0.136263
2023/07/01 23:03:47.509, True, 1.348, 0.136568
2023/07/01 23:03:48.013, True, 0.996, 0.134279
2023/07/01 23:03:48.517, True, 0.994, 0.135576
2023/07/01 23:03:49.021, True, 1.326, 0.134661
2023/07/01 23:03:49.517, True, 1.012, 0.134813
2023/07/01 23:03:50.021, True, 0.994, 0.134737
2023/07/01 23:03:50.525, True, 1.326, 0.133364
2023/07/01 23:03:51.021, True, 1.012, 0.135271
2023/07/01 23:03:51.525, True, 0.994, 0.134737
2023/07/01 23:03:52.021, True, 1.013, 0.135119
2023/07/01 23:03:52.525, True, 0.993, 0.132982
2023/07/01 23:03:53.029, True, 1.326, 0.132753
2023/07/01 23:03:53.533, True, 0.995, 0.134585
2023/07/01 23:03:54.029, True, 1.011, 0.135653
2023/07/01 23:03:54.533, True, 0.994, 0.132906
2023/07/01 23:03:55.037, True, 0.995, 0.131762
2023/07/01 23:03:55.533, True, 1.011, 0.134279
2023/07/01 23:03:56.037, True, 1.326, 0.132982
2023/07/01 23:03:56.541, True, 0.995, 0.134432
2023/07/01 23:03:57.037, True, 1.011, 0.134585
2023/07/01 23:03:57.541, True, 1.326, 0.133898
2023/07/01 23:03:58.045, True, 0.995, 0.133974
2023/07/01 23:03:58.541, True, 1.011, 0.132830
2023/07/01 23:03:59.045, True, 0.995, 0.133974
2023/07/01 23:03:59.549, True, 1.326, 0.134051
2023/07/01 23:04:00.045, True, 1.012, 0.135653
2023/07/01 23:04:00.549, True, 0.994, 0.135882
2023/07/01 23:04:01.045, True, 1.348, 0.137331
2023/07/01 23:04:01.549, True, 0.995, 0.134432
2023/07/01 23:04:02.053, True, 0.995, 0.135271
2023/07/01 23:04:02.549, True, 1.011, 0.135271
2023/07/01 23:04:03.053, True, 0.994, 0.134737
2023/07/01 23:04:03.557, True, 0.995, 0.135653
2023/07/01 23:04:04.053, True, 1.013, 0.133745
2023/07/01 23:04:04.557, True, 0.993, 0.133593
2023/07/01 23:04:05.061, True, 0.995, 0.135958
2023/07/01 23:04:05.565, True, 1.326, 0.132906
2023/07/01 23:04:06.061, True, 1.011, 0.133898
2023/07/01 23:04:06.565, True, 0.995, 0.132601
2023/07/01 23:04:07.069, True, 1.326, 0.134432
2023/07/01 23:04:07.565, True, 0.674, 0.134203
2023/07/01 23:04:08.069, True, 1.326, 0.134356
2023/07/01 23:04:08.573, True, 0.995, 0.135729
2023/07/01 23:04:09.069, True, 1.011, 0.133516
2023/07/01 23:04:09.572, True, 0.995, 0.131304
2023/07/01 23:04:10.077, True, 1.326, 0.135119
2023/07/01 23:04:10.573, True, 1.011, 0.133288
2023/07/01 23:04:11.077, True, 0.995, 0.135805
2023/07/01 23:04:11.573, True, 1.011, 0.135653
2023/07/01 23:04:12.077, True, 0.995, 0.135042
2023/07/01 23:04:12.581, True, 0.995, 0.133059
2023/07/01 23:04:13.077, True, 1.348, 0.133440
2023/07/01 23:04:13.581, True, 0.995, 0.135424
2023/07/01 23:04:14.085, True, 0.995, 0.136263
2023/07/01 23:04:14.581, True, 1.011, 0.136263
2023/07/01 23:04:15.085, True, 1.326, 0.134051
2023/07/01 23:04:15.589, True, 0.995, 0.135348
2023/07/01 23:04:16.085, True, 1.012, 0.135805
2023/07/01 23:04:16.589, True, 1.326, 0.132296
2023/07/01 23:04:17.093, True, 0.994, 0.133364